Location: Archemont
(49.1579°N, 1.7598°E)
Time: 20:54:45
(UTC+00:00)

Tiros 1 despin weight - Visible Passes

Search period start: 12 April 2024 00:00
Search period end: 22 April 2024 00:00
Orbit: 579 x 623 km, 48.2° (Epoch: 12 April)

Date Brightness Start Highest point End Pass type
(mag) Time Alt. Az. Time Alt. Az. Time Alt. Az.
12 Apr ? 20:04:07 10° W 20:08:36 54° SSW 20:11:15 23° SE visible
12 Apr ? 21:45:55 10° W 21:47:57 17° WSW 21:47:57 17° WSW visible
13 Apr ? 20:15:15 10° W 20:19:33 40° SSW 20:21:49 23° SSE visible
13 Apr ? 21:58:06 10° WSW 21:58:32 11° WSW 21:58:32 11° WSW visible
14 Apr ? 20:26:30 10° W 20:30:25 28° SSW 20:32:25 20° S visible
15 Apr ? 20:37:58 10° W 20:41:12 19° SW 20:43:03 15° S visible
16 Apr ? 20:50:11 10° WSW 20:51:53 12° SW 20:53:36 10° SSW visible
17 Apr ? 19:18:31 10° W 19:22:25 28° SSW 19:26:19 10° SSE visible
18 Apr ? 19:29:58 10° W 19:33:10 19° SW 19:36:22 10° S visible
19 Apr ? 19:42:13 10° WSW 19:43:50 12° SW 19:45:28 10° SSW visible
